Location: Lancaster
(34.6980°N, 118.1360°W)
Time: 21:17:18
(UTC-08:00)

Tiangong 1 - Visible Passes

Search period start: 16 January 2018 00:00
Search period end: 26 January 2018 00:00
Orbit: 264 x 288 km, 42.8° (Epoch: 16 January)

Date Brightness Start Highest point End Pass type
(mag) Time Alt. Az. Time Alt. Az. Time Alt. Az.
16 Jan 2.7 17:59:35 10° NW 18:01:14 16° N 18:02:20 13° NNE visible
17 Jan 2.9 18:00:02 10° NW 18:01:23 13° N 18:02:20 12° NNE visible
18 Jan 2.9 18:00:12 10° NNW 18:01:25 13° N 18:02:14 11° NNE visible
19 Jan 2.8 17:59:59 10° NNW 18:01:18 13° N 18:02:01 12° NNE visible
20 Jan 2.6 17:59:26 10° NNW 18:01:01 15° N 18:01:44 14° NNE visible
21 Jan 2.2 17:58:39 10° NW 18:00:34 19° NNE 18:01:25 16° NE visible
22 Jan 1.6 17:57:43 10° NW 17:59:55 27° NNE 18:01:05 18° ENE visible
23 Jan 0.7 17:56:40 10° NW 17:59:04 47° NNE 18:00:47 16° E visible
24 Jan 0.4 17:55:34 10° WNW 17:58:02 84° SSW 18:00:27 10° ESE visible
25 Jan 1.9 17:54:27 10° WNW 17:56:46 37° SSW 17:59:03 10° SE visible
